GEFSSE_con_probscp_096.txt.gz
Probability
3 5 6 3 2 5 13 22 27 25 20 16 10 4 1 0 0 0 0 0 0 0 0 0 0 0 0 0 0 0 0 0 0 0 0 0 0 0 0 0 0 0 0
6 8 7 5 4 5 11 18 23 24 19 15 10 5 1 0 0 0 0 0 0 0 0 0 0 0 0 0 0 0 0 0 0 0 0 0 0 0 0 0 0 0 0
14 13 9 6 6 6 9 14 17 19 16 11 8 5 1 0 0 0 0 0 0 0 0 0 0 0 0 0 0 0 0 0 0 0 0 0 0 0 0 0 0 0 0
22 19 11 7 8 9 10 12 13 13 11 7 4 2 1 0 0 0 0 0 0 0 0 0 0 0 0 0 0 0 0 0 0 0 0 0 0 0 0 0 0 0 0
27 23 15 11 12 12 12 12 11 10 8 5 2 1 1 0 0 0 0 0 0 0 0 0 0 0 0 0 0 0 0 0 0 0 0 0 0 0 0 0 0 0 0
27 24 20 17 16 15 15 15 13 10 8 6 4 1 1 0 0 0 0 0 0 0 0 0 0 0 0 0 0 0 0 0 0 0 0 0 0 0 0 0 0 0 0
29 28 26 24 18 15 16 18 17 13 9 7 4 2 1 0 0 0 0 0 0 0 0 0 0 0 0 0 0 0 0 0 0 0 0 0 0 0 0 0 0 0 0
37 36 33 27 20 15 15 18 19 16 11 7 3 1 0 0 0 0 0 0 0 0 0 0 0 0 0 0 0 0 0 0 0 0 0 0 0 0 0 0 0 0 0
42 41 37 29 21 17 16 18 19 17 12 6 2 1 0 0 0 0 0 0 0 0 0 0 0 0 0 0 0 0 0 0 0 0 0 0 0 0 0 0 0 0 0
42 40 36 31 24 20 18 17 18 17 13 6 2 1 0 0 0 0 0 0 0 0 0 0 0 0 0 0 0 0 0 0 0 0 0 0 0 0 0 0 0 1 2
42 38 35 34 31 26 22 20 20 19 15 9 5 3 2 1 1 0 0 0 0 0 0 0 0 0 0 0 0 0 0 0 0 0 0 0 0 0 0 0 1 3 4
47 41 34 34 37 34 29 27 27 25 20 13 9 7 5 3 2 2 1 1 1 1 1 1 1 0 0 0 0 0 0 0 0 0 0 0 0 0 0 0 2 4 5
52 44 34 30 34 36 35 35 35 33 27 18 12 8 6 4 4 3 3 2 2 2 2 2 1 0 0 0 0 0 0 0 0 0 0 1 1 2 2 3 5 7 7
52 46 36 29 30 34 37 39 39 37 31 21 13 8 7 7 5 4 3 2 2 3 3 3 2 1 1 0 0 0 0 0 0 0 0 1 2 4 6 8 11 11 11
46 43 37 31 32 37 40 40 39 38 32 23 14 10 9 9 5 3 3 2 2 2 3 3 3 2 2 1 0 0 0 0 0 0 0 1 2 6 11 12 13 14 13
39 39 36 33 34 39 42 42 39 37 34 26 20 15 12 8 4 2 2 2 2 2 2 2 2 2 2 1 0 0 0 0 0 0 0 0 2 8 13 13 14 14 14
34 36 36 33 31 33 37 39 36 34 32 30 25 20 14 8 3 0 1 1 1 1 2 1 1 1 1 1 0 0 0 0 0 0 0 0 2 6 10 11 12 13 12
33 34 34 31 27 26 29 31 29 28 27 27 26 21 15 10 4 2 1 0 0 1 2 2 1 0 0 0 0 0 0 0 0 0 0 0 1 3 5 7 8 10 11
34 33 31 27 24 23 24 23 21 20 20 20 20 16 13 10 8 6 3 1 0 1 2 2 1 0 0 0 0 0 0 0 0 0 0 0 0 1 1 2 4 7 9
34 32 28 24 22 22 22 20 18 16 15 16 14 10 8 8 8 7 4 1 1 1 1 1 0 0 0 0 0 0 0 0 0 0 0 0 0 0 0 1 2 3 4
30 27 25 23 23 22 22 21 19 16 14 14 12 6 3 5 7 6 4 3 2 2 2 2 1 1 1 1 0 0 0 0 0 0 0 0 0 0 0 0 1 1 1
27 24 22 23 23 21 20 20 19 15 13 12 10 5 2 2 4 5 4 3 3 3 3 3 3 3 2 1 0 0 1 0 0 0 0 0 0 0 0 0 0 0 0
24 22 21 21 21 19 17 16 15 13 11 10 7 4 1 0 1 3 3 3 3 3 3 3 3 3 2 1 0 0 0 0 0 0 0 0 0 0 0 0 0 0 0
19 19 18 18 17 16 14 13 12 11 9 7 5 3 2 1 2 3 3 3 3 3 3 3 3 3 1 0 0 0 0 0 0 0 0 0 0 0 0 0 0 0 0
15 15 15 14 13 13 11 11 10 9 7 5 4 3 2 2 3 3 3 3 3 3 2 2 2 2 1 0 0 0 0 0 0 0 0 0 0 0 0 0 0 0 0
12 12 12 12 11 11 10 9 9 8 5 4 3 2 2 3 3 2 2 3 3 2 1 1 1 1 0 0 0 0 0 0 0 0 0 0 0 0 0 0 0 0 0

GEFSSE_con_probscp_102.txt.gz
Probability
7 16 23 19 11 6 3 3 5 5 3 1 0 0 0 0 0 0 0 0 0 0 0 0 0 0 0 0 0 0 0 0 0 0 0 0 0 0 0 0 0 0 0
16 25 31 28 19 12 9 9 11 11 10 6 2 0 0 0 0 0 0 0 0 0 0 0 0 0 0 0 0 0 0 0 0 0 0 0 0 0 0 0 0 0 0
30 36 40 38 32 23 19 20 21 21 21 16 10 4 2 1 0 0 0 0 0 0 0 0 0 0 0 0 0 0 0 0 0 0 0 0 0 0 0 0 0 0 0
38 41 44 47 44 35 30 31 32 32 31 27 20 12 6 3 2 0 0 0 0 0 0 0 0 0 0 0 0 0 0 0 0 0 0 0 0 0 0 0 0 0 0
38 40 47 53 51 43 39 39 42 44 41 36 28 19 11 7 4 2 0 0 0 0 0 0 0 0 0 0 0 0 0 0 0 0 0 0 0 0 0 0 0 0 0
35 38 48 57 55 48 44 45 48 50 46 41 35 26 16 10 6 4 1 0 0 0 0 0 0 0 0 0 0 0 0 0 0 0 0 0 0 0 0 0 0 0 0
36 40 50 59 58 52 47 45 48 50 48 44 39 31 21 12 8 6 3 1 1 1 0 0 0 0 0 0 0 0 0 0 0 0 0 0 0 0 0 0 0 0 0
40 46 53 55 54 50 45 42 44 49 50 47 41 35 26 16 11 8 5 3 3 3 1 0 0 0 0 0 0 0 0 0 0 0 0 0 0 0 0 0 0 0 0
43 49 51 47 44 41 39 39 43 49 50 47 42 36 29 21 15 10 7 5 5 4 3 1 1 0 0 0 0 0 0 0 0 0 0 0 0 0 0 0 0 0 0
43 46 46 42 38 32 29 34 41 45 46 44 39 33 27 19 12 8 6 7 7 4 3 3 2 1 0 0 0 0 0 0 0 0 0 0 0 0 0 0 0 0 0
44 44 44 43 38 29 25 30 33 33 34 33 28 23 17 10 6 5 8 11 8 4 3 3 2 1 0 0 0 0 0 0 0 0 0 0 0 0 0 0 0 0 0
46 46 45 46 44 35 32 34 30 24 23 20 16 14 12 9 7 7 12 14 8 4 3 3 2 1 0 0 0 0 0 0 0 0 0 0 0 0 0 0 0 0 0
51 50 50 52 50 45 42 43 38 33 30 24 20 20 20 20 15 12 14 13 8 5 3 3 2 1 0 0 0 0 0 0 1 0 0 1 0 0 0 0 0 0 1
56 56 56 57 57 52 49 49 48 47 44 41 39 36 34 31 23 17 19 15 9 7 6 4 3 1 0 0 0 0 0 0 1 1 0 1 1 1 1 1 2 3 4
57 58 57 57 58 57 56 55 52 51 50 53 53 48 43 39 31 27 27 24 15 10 9 6 4 4 2 1 1 1 2 2 2 2 1 2 5 6 6 6 6 7 8
51 53 54 52 52 55 59 59 56 54 55 58 59 54 47 44 41 37 35 30 22 17 16 12 7 7 8 6 5 5 5 5 6 4 3 4 8 10 10 10 9 8 9
43 46 48 47 47 51 56 59 60 59 59 61 61 58 50 45 46 46 41 36 31 29 29 23 15 14 15 13 11 9 9 9 9 8 6 7 9 9 8 8 7 8 9
43 44 43 43 47 53 56 58 58 58 59 62 62 59 52 48 49 51 48 44 42 42 41 33 26 24 21 17 13 10 10 11 10 9 9 9 11 9 6 5 5 7 8
48 47 44 43 48 54 56 55 54 54 56 58 58 55 52 50 50 51 49 47 46 45 43 38 34 31 26 17 10 8 11 12 11 10 10 10 11 10 7 4 4 5 6
48 49 47 44 46 50 51 50 49 48 49 49 49 47 45 45 46 46 45 44 44 43 41 38 36 32 27 17 9 8 10 12 12 11 10 9 8 7 6 5 5 5 5
42 44 45 43 43 44 46 47 45 42 39 37 36 36 36 37 38 40 40 40 41 42 39 34 31 27 22 16 11 9 8 9 9 9 8 7 6 4 4 5 5 5 5
37 39 42 43 41 40 42 44 42 36 30 26 25 26 29 30 30 32 34 34 36 37 35 31 26 21 17 15 12 10 8 8 7 5 5 5 3 3 3 4 4 4 4
35 38 41 41 40 39 39 39 37 31 25 22 21 20 20 21 22 23 25 27 29 30 30 28 24 20 17 13 11 10 9 8 5 3 3 3 2 2 3 3 2 3 3
33 35 36 36 36 36 36 36 33 27 23 21 19 16 13 13 14 16 19 21 22 24 24 22 20 18 15 12 10 8 7 6 4 2 1 1 0 1 2 1 1 1 2
24 25 28 30 32 33 32 32 29 23 19 17 14 11 9 7 8 11 14 16 16 17 16 15 14 14 12 10 9 7 5 4 4 2 1 0 0 0 0 0 0 1 2
16 18 22 26 30 32 30 28 24 19 14 12 10 7 6 5 5 8 11 12 12 12 11 10 10 11 11 10 9 7 4 4 4 3 1 0 0 0 0 0 0 0 1

GEFSSE_con_probscp_108.txt.gz
Probability
36 35 33 26 14 6 2 1 0 0 0 0 0 0 0 0 0 0 0 0 0 0 0 0 0 0 0 0 0 0 0 0 0 0 0 0 0 0 0 0 0 0 0
54 47 40 30 17 8 3 2 1 0 0 0 0 0 0 0 0 0 0 0 0 0 0 0 0 0 0 0 0 0 0 0 0 0 0 0 0 0 0 0 0 0 0
65 55 45 35 25 15 8 5 3 1 0 0 0 0 0 0 0 0 0 0 0 0 0 0 0 0 0 0 0 0 0 0 0 0 0 0 0 0 0 0 0 0 0
59 52 46 43 35 24 16 10 6 3 1 1 1 1 1 0 0 0 0 0 0 0 0 0 0 0 0 0 0 0 0 0 0 0 0 0 0 0 0 0 0 0 0
52 49 50 50 43 35 28 20 12 6 3 2 2 2 2 1 0 0 0 0 0 0 0 0 0 0 0 0 0 0 0 0 0 0 0 0 0 0 0 0 0 0 0
47 47 51 56 52 47 43 34 23 14 7 4 4 5 6 4 2 1 1 1 1 0 0 0 0 0 0 0 0 0 0 0 0 0 0 0 0 0 0 0 0 0 0
40 43 50 59 61 58 52 45 36 28 21 17 14 14 13 10 7 4 3 2 2 1 0 0 0 0 0 0 0 0 0 0 0 0 0 0 0 0 0 0 0 0 0
41 43 48 56 61 60 57 54 51 46 43 39 33 27 22 16 11 8 5 4 3 1 1 1 0 0 0 0 0 0 0 0 0 1 1 1 0 0 0 0 0 0 0
52 50 47 49 53 54 56 60 60 59 58 55 48 39 30 20 13 10 9 7 4 3 2 2 1 0 0 0 0 0 0 0 0 1 1 2 1 0 0 0 0 0 0
62 57 49 44 45 46 50 57 61 60 60 57 50 43 33 21 12 9 10 10 8 4 3 2 1 0 0 0 0 0 0 0 1 1 2 4 4 2 0 0 0 0 0
65 60 49 43 42 39 44 54 57 55 54 50 43 37 28 15 8 6 10 15 12 6 3 2 1 0 0 0 0 0 0 1 2 2 2 4 6 4 2 1 0 0 0
68 60 49 44 40 36 42 54 55 48 45 40 34 28 20 12 8 10 18 23 18 9 5 3 1 0 0 0 0 0 0 1 2 2 4 7 8 8 5 3 2 1 1
71 62 52 48 41 36 45 54 51 43 38 33 29 25 17 12 14 21 30 30 21 11 6 3 2 0 0 0 1 1 1 1 2 2 5 10 10 8 8 7 5 4 3
68 63 59 55 47 44 52 56 50 44 40 35 33 30 21 18 22 29 33 29 19 10 5 3 1 0 1 1 2 2 3 4 5 5 8 13 13 12 12 11 8 6 5
64 63 62 60 57 56 60 59 52 49 47 45 44 41 33 28 29 29 29 25 15 7 6 4 3 3 4 4 4 6 8 12 13 11 12 15 17 17 17 15 11 9 8
66 65 63 62 62 62 64 61 54 51 53 56 56 51 44 38 35 32 30 25 17 13 13 11 10 12 12 10 9 12 16 21 23 18 14 13 14 18 20 18 15 13 12
69 68 65 63 63 64 64 62 57 54 56 59 57 53 47 44 43 40 36 30 24 24 25 22 20 21 21 17 17 19 22 25 27 23 16 10 9 13 17 17 15 14 15
69 69 66 64 65 65 64 62 60 58 58 58 56 52 47 45 47 44 38 34 32 32 32 28 26 26 26 24 23 23 23 23 23 20 16 11 10 12 14 14 13 13 13
68 66 63 63 64 63 60 58 58 58 58 56 55 51 44 41 43 40 37 37 37 37 34 30 30 29 28 27 22 20 20 19 18 16 15 13 12 13 14 14 13 11 11
63 61 59 58 60 59 56 53 51 50 49 47 44 42 37 35 36 34 34 39 41 38 34 32 33 31 29 23 16 12 13 15 16 16 15 15 13 13 13 12 10 8 7
58 57 54 52 53 53 50 47 45 42 38 35 33 30 28 27 29 29 31 38 41 38 34 34 33 30 25 17 10 6 7 11 13 14 15 14 12 9 8 7 6 4 4
49 50 49 48 47 47 46 43 40 36 31 29 27 23 20 21 24 26 29 33 35 33 31 31 29 24 18 13 9 6 6 8 8 8 9 10 7 5 4 3 3 3 3
38 40 43 44 44 44 43 41 36 31 28 26 23 20 17 17 19 21 23 24 25 25 25 25 24 19 14 12 11 10 9 7 5 4 3 3 2 1 1 1 2 3 3
29 31 35 39 41 42 42 39 34 28 25 23 21 17 14 13 13 14 15 17 18 20 20 19 18 15 13 12 12 12 10 7 4 1 0 0 0 0 0 0 1 1 2
23 24 26 28 30 33 35 34 30 25 21 20 19 15 12 10 9 9 11 13 14 15 16 15 14 13 13 12 12 10 8 6 3 1 0 0 0 0 0 0 0 0 1
20 20 19 19 21 26 30 29 26 22 18 17 17 14 10 8 7 7 9 11 11 11 11 12 13 13 13 11 10 9 7 4 3 2 1 0 0 0 0 0 0 0 0

GEFSSE_con_probscp_114.txt.gz
Probability
1 3 6 7 7 5 2 0 0 0 1 3 4 5 7 9 7 4 3 3 3 1 0 0 0 0 0 0 0 0 0 0 0 0 0 0 0 0 0 0 0 0 0
4 7 11 11 9 6 3 1 1 1 1 2 4 6 7 6 4 2 2 2 1 0 0 0 0 0 0 0 0 0 0 0 0 0 0 0 0 0 0 0 0 0 0
12 14 17 17 14 10 6 4 2 2 1 2 4 5 5 4 2 1 1 1 0 0 0 0 0 1 0 0 0 0 0 0 0 0 0 0 0 0 0 0 0 0 0
22 22 21 21 18 13 9 6 4 4 2 2 4 4 3 3 2 1 0 0 0 0 0 0 0 0 0 0 0 0 0 0 0 0 0 0 0 0 0 0 0 0 0
27 26 26 25 21 15 11 8 6 5 3 3 3 3 4 3 3 2 1 0 0 0 0 0 0 0 0 0 0 1 1 1 0 0 0 0 0 0 0 0 0 0 0
29 29 31 32 27 21 15 13 10 7 6 5 4 3 3 3 2 1 0 0 0 0 0 0 0 0 0 0 0 1 2 1 0 0 0 0 0 0 0 1 1 1 0
34 35 39 41 38 32 27 23 18 13 12 10 7 4 2 2 1 0 0 0 0 0 0 0 0 0 0 0 0 1 1 0 0 0 0 0 0 0 0 1 2 1 1
45 47 51 51 47 43 39 34 28 22 20 18 13 8 5 3 1 0 0 0 0 0 0 0 0 0 0 0 0 0 0 0 0 0 0 0 0 0 0 1 1 1 0
57 60 63 59 51 46 44 41 35 28 26 24 19 15 11 7 4 2 1 1 0 0 0 0 0 0 0 0 0 0 0 0 0 0 0 0 0 0 0 0 0 0 0
61 64 67 63 55 49 46 42 38 32 29 27 24 20 15 10 7 5 4 3 2 1 0 0 0 0 0 0 0 0 0 0 0 0 0 0 0 0 1 2 1 0 0
56 58 61 61 57 52 48 45 40 34 29 29 28 24 18 12 8 5 4 4 3 2 1 0 0 0 0 0 0 0 0 0 0 0 0 0 0 1 2 4 4 2 1
53 53 53 54 54 51 49 47 43 35 31 32 33 30 23 14 8 4 4 3 3 2 1 0 0 0 0 0 0 0 0 0 0 0 1 1 1 2 4 6 5 3 2
52 50 48 49 50 50 49 48 44 38 34 33 33 31 25 17 9 5 4 2 1 1 0 0 0 0 1 0 0 0 0 0 0 0 1 1 1 3 4 5 4 2 1
47 45 44 46 48 49 50 48 44 40 35 31 28 26 23 17 10 6 4 2 0 0 0 0 0 0 0 0 0 0 0 1 1 1 1 2 2 2 3 3 3 2 1
41 40 40 42 43 44 46 46 43 39 33 28 23 21 19 14 9 5 3 2 0 0 0 0 0 0 0 0 0 1 1 1 1 1 1 2 4 5 5 5 5 4 3
38 36 36 37 36 37 38 39 40 38 33 26 21 19 16 13 8 4 2 2 1 1 1 1 1 1 0 0 0 1 2 1 1 2 3 3 6 9 11 11 10 8 7
36 35 35 34 31 30 30 31 34 34 29 22 18 16 15 12 8 6 5 3 3 3 3 2 1 1 0 0 0 1 1 1 1 3 3 4 6 11 13 13 12 10 9
34 34 34 32 29 27 26 26 27 26 21 16 13 13 12 10 9 8 7 6 5 4 3 3 2 1 0 0 0 0 0 1 2 3 3 3 5 7 9 10 9 7 7
32 33 33 30 26 26 26 25 22 18 14 9 8 9 9 8 8 9 9 9 7 5 3 2 1 1 0 0 0 0 0 1 2 3 3 3 3 4 4 5 6 5 4
28 30 29 27 25 26 25 23 19 13 8 5 5 6 7 7 7 9 10 9 8 5 2 1 0 0 0 0 0 0 0 1 2 3 3 3 3 2 2 3 3 3 3
24 25 25 26 26 25 23 19 15 11 7 5 5 6 7 7 7 8 8 8 7 4 1 0 0 0 0 0 0 0 0 0 1 2 3 3 1 1 0 1 1 1 2
19 20 22 24 25 24 21 16 11 9 9 8 7 8 8 8 7 6 5 5 4 3 1 1 1 1 0 0 0 0 0 0 0 1 2 2 1 0 0 0 0 0 1
15 16 18 20 21 20 17 12 9 9 10 9 8 8 7 7 6 5 4 3 3 3 3 2 2 2 1 0 0 0 0 0 0 0 1 1 0 0 0 0 0 0 0
11 13 15 17 17 15 12 9 7 8 9 8 7 5 5 6 6 5 4 3 3 3 3 3 3 3 2 1 0 0 0 0 0 0 0 0 0 0 0 0 0 0 0
8 10 12 14 13 10 8 7 5 5 6 7 6 4 4 5 6 5 4 3 3 3 3 3 2 3 3 1 0 0 0 0 0 0 0 0 0 0 0 0 0 0 0
7 8 10 11 9 7 6 6 5 4 4 5 6 4 4 4 4 4 4 3 3 3 3 3 3 3 3 2 1 0 0 0 0 0 0 0 0 0 0 0 0 0 0

GEFSSE_con_probscp_120.txt.gz
Probability
6 9 11 11 13 16 19 20 20 22 22 18 14 12 8 3 1 1 0 0 1 2 1 0 0 0 0 0 0 0 0 0 0 0 0 0 0 0 0 0 0 0 0
11 12 13 14 16 20 22 22 22 24 23 20 17 12 8 4 2 2 1 0 0 1 0 0 0 0 0 0 0 0 0 0 0 0 0 0 0 0 0 0 0 0 0
19 18 18 18 19 22 24 24 24 24 24 21 17 13 10 7 6 5 3 2 0 0 0 0 0 0 0 0 0 0 0 0 0 0 0 0 0 0 0 0 0 0 0
23 22 21 22 22 22 24 25 24 23 24 21 16 13 12 11 10 8 6 4 1 0 1 1 1 1 1 1 0 0 0 0 0 0 0 0 0 0 0 0 0 0 0
24 24 25 28 26 24 24 25 24 22 21 18 14 13 13 13 12 10 7 5 2 0 1 1 1 1 1 1 0 0 0 0 0 0 0 0 0 0 0 0 0 0 0
23 25 31 36 34 29 28 28 27 25 22 18 14 13 14 14 13 10 7 5 3 1 0 0 1 1 1 0 0 0 0 0 0 0 0 0 0 0 0 0 0 0 0
26 28 38 46 42 35 32 32 33 31 28 24 20 18 16 16 14 10 7 5 3 2 1 0 0 0 0 0 0 0 0 0 0 0 0 0 0 0 0 0 0 0 0
35 36 43 49 45 36 32 32 34 35 33 31 29 26 22 18 15 12 8 6 5 3 2 1 0 0 0 0 0 0 0 0 0 0 0 0 0 0 0 0 0 0 0
42 44 48 48 42 35 32 32 33 35 34 32 31 29 25 19 15 12 11 9 8 6 3 1 0 1 1 1 1 0 0 0 0 0 0 0 0 0 0 0 0 0 0
45 49 51 49 43 39 37 35 35 34 32 30 29 27 23 19 13 12 13 12 10 8 4 2 2 4 3 2 2 1 0 0 0 0 0 0 0 0 0 0 0 0 0
46 49 52 51 48 45 43 42 41 38 35 32 29 25 21 18 14 12 12 12 10 9 6 4 6 8 7 6 5 3 1 0 0 0 0 0 0 0 0 0 0 0 0
43 46 49 50 49 49 48 48 48 46 42 37 32 27 22 19 18 15 13 12 12 11 9 7 8 9 9 8 6 4 2 1 0 0 1 1 1 0 0 1 1 1 0
39 41 43 46 49 50 52 54 55 52 47 42 38 33 27 22 21 19 16 14 13 11 11 10 9 8 8 8 6 3 1 1 1 1 1 2 2 0 0 1 2 2 1
37 37 38 42 45 48 52 55 54 50 45 42 39 36 32 27 25 22 18 15 12 9 9 8 6 5 6 7 4 1 0 1 1 2 3 2 1 0 1 2 3 3 3
34 35 37 39 40 42 46 47 45 41 37 35 34 33 31 29 25 21 18 15 10 6 5 3 2 2 4 4 3 1 0 1 2 3 3 2 1 1 1 2 3 3 3
30 31 35 36 34 33 34 35 34 34 31 29 28 28 28 25 21 18 17 13 8 5 3 2 1 1 1 1 1 0 0 1 2 3 3 2 2 2 3 3 4 4 4
29 30 32 31 29 28 28 27 28 29 28 26 25 24 23 20 16 15 14 12 8 7 6 5 3 1 0 0 0 0 0 0 1 2 3 3 3 4 6 7 6 5 5
28 30 30 28 27 27 27 25 24 23 21 19 19 18 18 16 13 12 12 11 10 9 9 7 5 3 1 0 0 0 0 0 0 1 2 3 3 5 9 10 8 6 5
25 26 27 27 27 28 26 22 18 15 12 11 11 11 11 12 12 11 11 11 11 11 11 8 6 5 3 1 0 0 0 0 0 0 1 1 3 5 7 7 5 3 3
21 20 21 22 24 26 25 18 12 8 6 5 5 5 7 10 11 10 10 9 9 10 9 7 6 5 3 1 0 0 0 0 0 0 0 1 3 4 4 3 1 1 1
17 16 16 17 20 23 23 17 9 5 4 3 3 3 4 7 9 10 9 8 8 8 6 4 4 3 1 0 0 0 0 0 0 0 1 2 3 3 3 2 1 0 0
15 14 13 13 16 20 21 16 8 4 4 3 2 1 2 5 7 8 8 7 6 6 5 3 2 2 1 0 0 0 0 0 0 0 1 2 3 3 3 3 2 2 1
14 12 10 10 12 16 17 14 8 5 4 2 1 0 1 2 4 6 8 7 5 4 4 3 2 2 1 0 0 0 0 0 0 0 0 1 2 3 3 3 3 3 2
10 10 8 8 10 12 12 11 8 5 4 1 0 0 1 1 1 2 5 5 4 3 4 3 3 3 3 1 0 0 0 0 0 0 0 0 1 2 2 1 1 1 1
6 6 6 6 6 8 8 7 6 5 2 1 0 0 0 0 0 1 2 3 3 3 3 3 3 3 3 2 1 0 0 0 0 0 0 0 0 1 1 0 0 0 0
4 4 4 4 4 5 5 5 6 5 2 1 0 0 0 0 0 1 2 2 3 3 3 3 3 3 3 2 1 0 0 0 0 0 0 0 0 0 0 0 0 0 0

GEFSSE_con_probscp_126.txt.gz
Probability
3 5 5 4 3 1 1 1 1 0 0 0 0 0 0 0 0 0 0 0 0 0 0 0 0 0 0 0 0 0 0 0 0 0 0 0 0 0 0 0 0 0 0
6 7 6 5 4 4 5 6 5 3 2 0 0 0 0 0 0 0 0 0 0 0 0 0 0 0 0 0 0 0 0 0 0 0 0 0 0 0 0 0 0 0 0
11 10 8 7 8 9 12 14 14 12 7 3 1 0 0 1 1 1 0 0 0 0 0 0 0 0 0 0 0 0 0 0 0 0 0 0 0 0 0 0 0 0 0
11 9 8 10 12 14 18 22 25 22 17 11 6 4 2 2 3 2 1 1 0 0 0 0 0 0 0 0 0 0 0 0 0 0 0 0 0 0 0 0 0 0 0
7 7 9 10 12 16 21 27 33 32 27 21 15 11 8 7 6 5 3 2 1 1 0 0 0 0 0 0 0 0 0 0 0 0 0 0 0 0 0 0 0 0 0
4 6 9 9 11 17 23 32 40 41 39 33 27 22 17 13 11 8 5 3 3 2 1 0 0 0 0 0 0 0 0 0 0 0 0 0 0 0 0 0 0 0 0
6 7 9 9 10 15 25 36 44 48 48 44 39 32 26 21 15 11 9 6 4 3 1 0 0 0 0 0 0 0 0 0 0 0 0 0 0 0 0 0 0 0 0
10 10 10 9 8 13 23 35 45 49 50 49 46 40 33 27 20 15 12 11 8 5 3 1 0 0 0 0 0 0 0 0 0 0 0 0 0 0 0 0 0 0 0
11 12 11 9 7 9 16 28 40 44 45 47 47 41 34 28 21 16 14 14 13 10 8 6 3 2 1 0 0 0 0 0 0 0 0 0 1 0 0 0 0 0 0
12 12 12 10 8 7 10 20 31 37 37 38 39 35 29 21 15 11 13 15 15 13 11 10 7 4 2 0 0 0 0 0 0 0 1 1 1 0 0 0 0 0 0
14 14 13 12 10 8 9 16 23 27 27 26 27 27 23 15 10 10 13 18 16 13 13 12 9 5 2 0 0 0 0 0 0 0 3 5 3 0 0 0 0 0 0
18 14 12 13 13 13 16 20 21 23 24 22 22 24 23 19 14 13 19 21 17 13 13 11 8 4 1 1 2 1 0 0 0 1 5 9 7 2 0 0 0 0 0
20 16 12 13 16 19 24 29 30 31 34 33 31 31 30 28 23 21 25 25 21 17 14 12 9 4 1 2 2 1 0 0 0 2 7 11 10 4 1 0 0 0 1
23 19 15 16 22 27 34 39 39 41 45 45 43 41 38 34 32 33 34 31 28 24 20 17 12 6 2 1 1 0 0 1 1 4 9 12 10 6 2 1 2 2 1
27 24 19 21 29 36 41 43 42 44 46 46 45 44 41 37 37 38 39 38 34 31 29 25 19 14 8 3 1 0 0 1 2 5 9 11 9 7 4 3 4 3 2
25 25 24 27 33 37 38 39 40 42 43 41 40 39 38 37 37 35 36 38 38 37 35 33 29 24 18 9 3 2 2 2 3 5 7 10 9 7 5 4 4 5 4
20 24 28 30 32 32 33 35 36 36 37 37 36 35 35 35 35 34 33 34 37 38 38 37 35 31 24 15 9 7 7 6 5 5 7 11 11 8 7 5 4 6 6
18 25 30 30 29 28 29 32 32 32 32 34 34 32 30 31 33 34 33 32 33 35 35 35 33 30 27 23 19 16 15 12 7 5 7 12 14 11 7 5 5 6 6
19 26 32 31 28 27 28 28 29 31 32 32 31 28 26 25 29 32 33 34 34 32 31 31 30 29 30 29 25 22 19 16 11 7 8 10 12 11 7 5 4 4 5
18 25 31 32 30 29 28 28 28 30 30 28 26 25 23 22 24 29 32 35 34 32 30 29 30 31 32 32 26 21 19 16 13 10 10 10 10 9 8 7 6 5 5
18 22 26 29 30 30 29 29 29 28 25 23 20 18 18 18 19 23 29 31 31 29 28 29 32 33 33 32 27 20 15 12 11 11 11 11 9 7 7 8 9 7 6
17 19 22 24 27 28 28 28 28 25 20 17 15 13 12 13 14 17 22 24 24 24 25 26 30 32 31 28 26 20 13 9 7 7 8 8 7 6 6 7 9 8 7
15 17 19 20 21 23 25 26 25 23 18 15 13 11 9 9 10 13 16 18 20 21 22 22 24 26 24 21 22 20 15 9 5 3 2 3 4 6 6 6 6 7 6
12 14 16 17 17 18 20 22 21 20 18 15 11 9 8 7 7 8 11 14 16 18 19 19 18 18 16 14 16 18 16 11 5 1 0 0 2 3 5 5 6 7 7
7 9 12 14 14 14 15 17 16 15 15 12 9 7 7 6 5 6 8 10 12 13 12 13 13 12 11 11 12 15 14 9 4 1 0 0 0 1 3 4 6 8 8
5 7 10 12 12 11 12 13 13 12 11 9 7 7 6 5 5 5 6 8 9 9 8 9 11 10 10 10 11 13 12 7 2 1 1 0 0 0 1 3 5 7 9

GEFSSE_con_probscp_132.txt.gz
Probability
17 14 11 7 2 0 0 0 0 0 0 0 0 0 0 0 0 0 0 0 0 0 0 0 0 0 0 0 0 0 0 0 0 0 0 0 0 0 0 0 0 0 0
25 19 14 9 2 0 0 0 0 0 0 0 0 0 0 0 0 0 0 0 0 0 0 0 0 0 0 0 0 0 0 0 0 0 0 0 0 0 0 0 0 0 0
26 19 15 10 4 0 0 0 0 0 0 0 0 0 0 0 0 0 0 0 0 0 0 0 0 0 0 0 0 0 0 0 0 0 0 0 0 0 0 0 0 0 0
16 14 14 13 7 2 0 0 0 0 0 0 0 0 0 0 0 0 0 0 0 0 0 0 0 0 0 0 0 0 0 0 0 0 0 0 0 0 0 0 0 0 0
9 12 17 18 12 5 2 1 0 0 0 0 0 0 0 0 0 0 0 0 0 0 0 0 0 0 0 0 0 0 0 0 0 0 0 0 0 1 1 0 0 0 0
11 14 20 22 16 9 4 2 1 1 0 0 0 0 0 0 0 0 0 0 0 0 0 0 0 0 0 0 0 0 0 0 0 0 0 0 1 2 2 1 0 0 0
16 17 21 23 19 13 9 6 4 2 2 3 2 2 2 2 2 2 2 2 1 0 0 0 0 0 0 0 0 0 0 0 0 0 0 1 2 3 3 1 1 0 0
23 20 19 20 18 16 16 14 11 9 8 9 9 8 7 7 7 7 7 6 3 1 0 0 1 1 1 0 0 0 0 0 0 0 1 3 5 6 5 3 2 1 0
25 19 14 12 12 14 18 19 18 18 18 17 16 15 12 10 9 8 8 7 5 3 1 1 2 2 2 1 0 0 0 0 0 0 2 7 11 11 8 6 4 2 0
25 17 8 5 6 8 11 15 19 20 21 20 20 17 13 8 5 5 6 7 8 6 3 3 4 4 3 2 0 0 0 0 0 0 3 11 18 16 10 7 6 3 1
25 17 9 7 6 6 7 11 12 14 17 19 19 18 14 7 3 4 8 14 15 10 6 6 7 6 4 2 0 0 0 0 0 0 6 17 24 20 13 9 6 4 1
24 20 15 15 13 11 13 13 9 10 16 19 20 21 16 9 7 9 18 26 23 14 9 9 10 8 4 1 0 0 0 0 1 2 10 23 30 25 17 10 7 5 2
26 24 23 23 21 22 25 23 16 18 24 23 23 26 22 17 18 23 32 37 30 18 10 11 12 7 2 0 0 1 1 1 2 5 13 25 31 29 21 11 7 5 4
31 29 26 27 30 36 41 37 31 34 36 32 32 36 35 33 34 39 45 45 35 22 13 12 11 6 2 1 2 3 4 4 4 6 13 23 29 29 23 13 7 5 4
34 32 29 32 39 48 53 50 43 43 43 40 41 45 45 45 46 48 48 44 35 25 19 16 12 8 6 5 4 5 7 6 5 7 14 23 28 28 24 17 9 5 5
37 35 33 37 46 53 56 54 48 45 44 43 45 45 45 47 49 48 44 40 33 26 23 19 15 13 12 10 7 7 9 8 9 12 17 21 26 27 25 20 15 10 8
39 39 38 41 48 52 52 51 49 46 44 44 44 43 43 45 49 47 42 37 33 28 24 21 19 18 15 11 9 9 11 12 14 19 21 21 22 23 22 21 20 17 13
41 43 43 44 49 51 49 50 49 46 44 44 43 44 43 44 48 49 43 38 35 32 26 22 22 21 17 12 11 11 13 15 17 20 22 23 23 20 20 20 21 20 20
43 45 46 46 48 49 48 49 49 46 43 42 42 42 42 43 47 49 45 41 38 34 27 22 21 21 18 14 11 10 12 14 17 18 19 20 22 20 18 18 20 20 21
38 41 45 46 47 48 48 49 47 43 42 41 40 40 40 40 44 46 44 41 37 31 25 20 18 18 16 13 8 6 10 12 13 14 14 13 16 17 17 19 19 17 16
31 35 40 44 46 48 49 48 44 40 38 37 36 35 35 36 36 37 36 36 31 25 21 19 16 14 13 11 6 4 6 7 7 9 10 10 11 14 17 19 18 16 13
27 29 33 37 40 43 45 45 42 38 35 33 32 31 30 29 27 25 26 28 26 22 20 19 16 13 11 9 6 4 3 4 4 6 9 9 11 14 16 16 17 17 15
22 24 27 29 31 34 37 39 39 36 34 34 33 31 28 23 18 17 17 20 21 21 20 19 15 12 10 8 5 4 3 3 4 5 6 7 9 13 13 11 13 15 14
14 17 21 23 25 28 30 32 33 32 32 32 31 28 25 19 13 10 11 14 16 18 18 17 14 13 11 9 6 5 4 3 3 3 3 3 6 8 8 7 8 9 9
7 9 13 16 19 23 25 26 26 25 25 26 25 23 21 16 10 7 8 11 13 15 15 14 14 15 15 12 9 8 6 5 4 3 2 2 4 4 4 5 5 5 5
3 4 6 10 14 18 21 22 21 21 22 22 21 20 19 16 11 7 7 10 12 13 13 13 13 15 17 14 11 9 9 7 4 3 3 3 3 3 4 4 4 4 4

GEFSSE_con_probscp_138.txt.gz
Probability
0 1 2 5 5 2 0 0 0 0 1 1 1 2 3 5 5 5 3 2 3 2 1 0 0 0 0 0 0 0 0 0 0 0 0 0 0 0 0 0 0 0 0
5 4 5 6 5 3 1 0 0 1 2 2 2 3 4 5 6 5 3 3 3 2 1 0 0 0 0 0 0 0 0 0 0 0 0 0 0 0 0 0 0 0 0
16 11 8 7 6 3 1 0 0 1 2 3 3 4 5 6 6 4 3 2 2 1 0 0 0 0 0 0 0 0 0 0 0 0 0 0 0 0 0 0 0 0 0
27 19 12 9 7 5 3 1 0 1 1 1 2 3 4 5 4 2 1 1 1 0 0 0 0 0 0 0 0 0 0 0 0 0 0 0 0 0 0 0 0 0 0
32 25 17 13 10 6 3 1 0 0 0 0 1 1 1 2 1 0 0 0 0 0 0 0 0 0 0 0 0 0 0 0 0 0 0 0 0 0 0 0 0 0 0
35 30 24 19 15 10 5 2 1 1 0 0 0 0 0 1 1 1 1 1 1 0 0 0 0 0 0 0 0 0 0 0 0 0 0 0 0 0 0 1 1 1 0
35 33 29 27 24 18 11 6 3 1 0 0 0 0 1 1 2 2 2 2 2 1 0 0 0 0 0 0 0 0 0 0 0 0 0 0 0 0 1 2 2 2 1
32 32 31 29 28 25 20 12 6 2 1 0 1 1 2 2 3 3 1 1 2 1 0 0 0 0 0 0 0 0 0 0 0 0 0 0 0 0 1 1 2 2 2
29 29 28 27 26 27 24 17 10 5 2 1 2 2 2 3 3 2 1 1 1 1 0 0 0 0 0 0 0 0 0 0 0 0 0 0 0 1 1 1 1 2 3
26 24 23 21 21 23 22 18 14 9 5 2 2 2 3 3 2 1 1 1 1 1 1 1 1 0 0 1 1 0 0 0 0 0 0 0 0 1 2 1 1 2 2
18 17 16 16 17 18 17 15 13 11 7 4 2 3 5 4 2 1 1 2 3 2 2 2 1 0 0 1 1 1 1 2 1 0 0 1 1 3 4 3 1 1 1
12 12 10 10 13 15 15 13 12 11 9 7 6 5 6 5 2 1 2 3 4 3 3 3 3 2 1 0 0 1 2 3 2 1 0 1 3 6 7 6 3 1 1
9 9 8 7 9 11 12 12 11 11 10 10 8 7 5 3 1 1 3 4 4 4 5 5 5 5 2 0 0 1 2 3 2 1 0 2 5 9 10 7 4 3 2
8 9 10 9 8 9 11 11 10 10 10 10 8 5 3 2 1 1 3 4 3 5 7 8 7 6 2 0 0 1 1 1 1 0 1 4 9 11 9 6 5 5 5
11 11 11 10 8 10 12 11 10 10 11 10 7 5 3 3 2 1 2 3 3 4 7 8 7 5 1 0 0 0 1 1 0 0 1 6 10 11 10 8 7 8 7
13 14 12 11 10 10 11 11 10 11 12 10 7 5 3 2 2 2 2 3 2 2 4 6 5 3 1 0 0 0 1 1 1 1 1 4 7 9 10 10 10 11 11
15 15 13 11 11 10 9 10 11 12 12 9 6 4 3 2 2 2 2 3 2 2 2 2 1 1 0 0 0 0 0 0 0 1 1 2 4 5 8 10 12 13 13
14 13 11 8 8 9 10 11 12 11 10 8 5 3 3 3 3 3 2 1 2 2 1 0 0 0 0 0 0 0 0 0 0 0 1 2 1 2 4 8 11 12 12
8 8 7 6 6 8 11 13 13 12 12 10 7 6 6 5 5 4 2 1 2 3 2 0 0 0 0 0 0 0 0 0 0 0 0 0 0 0 2 5 7 8 9
3 4 5 5 6 8 10 12 12 14 18 17 14 11 9 7 8 7 4 2 2 2 1 0 0 0 0 0 0 0 0 0 0 0 0 0 0 0 0 2 4 5 5
5 6 7 7 7 7 8 8 10 14 19 20 17 14 11 9 10 10 7 4 2 1 0 0 1 1 1 1 1 0 0 0 0 0 0 0 0 0 0 0 1 2 2
8 8 8 8 9 9 7 7 8 12 14 14 13 12 11 11 11 10 8 6 5 3 2 1 2 3 3 3 2 1 0 0 0 0 0 0 0 0 0 0 0 0 0
7 7 8 8 8 9 9 9 10 10 10 8 7 8 10 9 8 7 6 6 5 5 4 3 3 4 4 3 2 2 1 0 0 0 0 0 0 0 0 0 0 0 0
4 5 5 6 6 6 8 11 12 10 7 5 4 6 6 5 4 4 5 5 5 4 3 2 2 3 3 2 2 2 2 0 0 0 0 0 0 0 0 0 0 0 0
1 2 3 3 3 3 5 8 10 9 7 5 4 4 3 2 2 3 4 5 5 4 3 2 1 1 2 1 2 3 2 0 0 0 0 0 0 0 0 0 0 0 0
0 0 1 1 1 1 2 4 6 6 6 6 5 4 2 1 1 2 4 5 6 5 4 2 1 1 2 2 2 3 2 1 0 0 0 0 0 0 0 0 0 0 0

GEFSSE_con_probscp_144.txt.gz
Probability
1 3 5 6 6 8 10 13 17 19 14 8 4 2 2 3 2 1 0 0 0 0 0 0 0 0 0 0 0 0 0 0 0 0 0 0 0 0 0 0 0 0 0
6 6 8 8 8 9 10 10 13 14 12 8 5 3 2 3 2 0 0 0 0 0 0 0 0 0 0 0 0 0 0 0 0 0 0 0 0 0 0 0 0 0 0
13 11 10 11 11 11 11 10 9 9 9 7 4 4 4 3 2 1 1 1 0 0 0 0 0 0 0 0 0 0 0 0 0 0 0 0 0 0 0 0 0 0 0
16 13 11 11 12 12 13 12 9 6 5 3 3 3 4 3 3 3 2 2 1 0 0 0 0 0 0 0 0 0 0 0 0 0 0 0 0 0 0 0 0 0 0
16 13 12 13 12 12 13 14 10 5 2 2 2 3 3 3 3 3 2 2 1 0 0 0 0 0 0 0 0 0 0 0 0 0 0 0 0 0 0 0 0 0 0
19 17 16 16 14 12 13 13 11 5 2 2 3 3 2 2 2 1 1 1 0 0 0 0 0 0 0 0 0 0 0 0 0 0 0 0 0 0 0 0 0 0 0
26 24 22 20 17 15 14 13 11 7 4 4 3 2 1 1 1 0 0 0 1 1 1 1 1 0 0 0 0 0 1 0 0 0 0 0 0 0 0 0 1 2 2
30 29 27 23 20 19 17 16 13 10 8 6 4 2 2 1 0 0 1 1 2 2 2 2 1 1 1 1 1 1 1 1 0 0 0 0 0 0 0 0 2 3 3
26 28 26 23 21 23 22 20 16 11 8 7 6 5 5 3 2 2 3 3 3 2 2 2 2 1 1 2 2 2 2 2 1 0 0 0 0 0 1 1 2 3 4
23 25 26 24 24 25 25 23 18 12 9 8 9 8 6 5 5 5 5 4 2 1 2 3 4 3 2 2 2 3 3 3 2 1 0 0 0 0 1 1 2 3 3
23 25 26 27 28 27 26 24 21 17 13 10 9 8 5 4 5 5 4 3 2 2 3 5 8 6 3 1 1 1 2 3 2 1 0 0 0 0 1 2 3 2 1
22 22 23 26 27 26 25 26 25 22 17 12 8 6 3 2 3 4 3 2 2 3 4 6 9 9 7 4 1 0 1 2 1 0 0 0 0 1 2 4 4 2 1
16 16 17 19 21 22 23 24 24 22 17 13 10 5 2 0 1 2 2 2 3 4 5 5 6 9 9 6 2 0 0 1 1 0 0 1 2 3 4 5 5 3 2
9 10 12 14 16 19 19 19 20 20 17 13 9 5 1 0 0 1 2 3 4 6 6 4 4 5 7 5 2 0 0 0 1 1 1 2 3 3 5 6 6 4 4
6 7 8 11 13 15 16 16 16 16 14 9 5 2 0 0 0 0 1 2 3 4 4 3 3 3 3 3 2 1 0 0 0 1 2 3 4 5 5 7 8 7 7
6 5 6 7 9 9 10 10 10 10 9 6 2 0 0 0 0 0 1 1 1 1 1 1 1 2 2 2 2 1 0 0 0 1 2 4 6 7 7 7 9 10 11
5 5 4 4 4 5 5 5 5 5 5 5 3 1 1 0 0 0 0 0 0 0 0 0 0 1 1 1 1 1 0 0 0 0 1 4 6 7 7 7 9 11 11
4 4 3 2 1 2 2 3 3 3 3 4 3 2 2 1 0 0 0 0 0 0 0 0 0 0 0 0 0 0 0 0 0 0 1 2 4 5 6 6 8 9 10
5 4 3 1 1 1 1 2 3 2 1 1 1 1 2 1 0 0 0 0 0 0 0 0 0 0 0 0 0 0 0 0 0 0 0 1 2 3 4 5 5 6 7
6 5 4 3 2 1 1 2 3 2 0 0 0 0 1 1 1 0 0 0 0 0 0 0 0 0 0 0 0 0 0 0 0 0 0 0 1 2 3 3 2 2 2
5 5 4 3 3 2 2 2 2 1 0 0 0 0 0 1 1 0 0 0 0 0 0 0 0 1 1 0 1 1 0 0 0 0 0 0 0 1 1 1 0 0 0
3 4 4 3 3 2 1 2 2 1 0 0 0 0 0 0 0 0 0 0 0 0 0 0 0 1 2 2 2 2 1 0 0 0 0 0 0 0 0 0 0 0 0
2 2 3 3 1 1 1 3 3 1 0 0 0 0 0 0 0 0 1 1 0 0 0 0 0 1 2 2 2 3 2 1 1 0 0 0 0 0 0 0 0 0 0
2 2 3 3 1 0 1 3 3 1 0 0 0 0 0 0 0 0 1 2 1 0 0 0 0 1 1 1 1 2 2 2 2 1 1 0 0 0 0 0 0 0 0
3 3 3 3 2 1 1 2 1 0 0 0 0 0 0 0 0 0 1 1 1 0 0 0 0 0 0 0 0 1 1 2 3 3 2 1 0 0 0 0 0 0 0
3 3 3 3 3 2 2 1 0 0 0 0 0 0 0 0 0 0 0 1 0 0 0 0 0 0 0 0 0 0 0 1 3 3 3 2 1 0 0 0 0 0 0

GEFSSE_con_probscp_150.txt.gz
Probability
0 0 0 0 0 1 4 6 7 7 5 3 1 0 0 0 0 0 0 0 0 0 0 0 0 0 0 0 0 0 0 0 0 0 0 0 0 0 0 0 0 0 0
1 0 0 0 1 3 6 9 9 8 6 4 2 0 0 0 0 0 0 0 0 0 0 0 0 0 0 0 0 0 0 0 0 0 0 0 0 0 0 0 0 0 0
3 2 1 1 3 7 12 15 14 10 8 6 4 1 0 0 0 0 0 0 0 0 0 0 0 0 0 0 0 0 0 0 0 0 0 0 0 0 0 0 0 0 0
8 6 3 3 6 11 15 19 19 14 10 8 6 3 1 0 0 0 0 0 0 0 0 0 0 0 0 0 0 0 0 0 0 0 0 0 0 0 0 0 0 0 0
10 8 7 5 7 11 14 17 18 15 12 10 8 6 3 1 0 0 0 0 0 0 0 0 0 0 0 0 0 0 0 0 0 0 0 0 0 0 0 0 0 0 0
8 8 8 8 8 9 11 13 13 12 11 11 10 7 4 1 0 0 0 0 0 0 0 0 0 0 0 0 0 0 0 0 0 0 0 0 1 1 1 0 0 0 0
8 8 9 10 10 9 9 10 10 10 10 10 9 8 5 2 2 1 1 1 0 0 0 0 0 0 0 0 0 0 0 0 0 0 0 0 1 2 1 0 0 0 0
8 8 9 10 11 11 12 13 13 12 11 11 10 8 5 4 5 4 3 2 1 0 0 0 0 0 0 0 0 0 0 0 0 0 0 1 2 2 1 0 0 0 0
7 7 8 8 8 10 13 16 17 17 15 14 13 10 7 5 5 5 4 3 2 1 0 0 0 0 0 0 0 0 0 0 0 0 0 1 3 2 1 0 0 0 0
9 9 8 5 5 7 10 16 20 19 18 16 15 13 9 5 2 2 3 4 4 2 0 0 0 0 0 0 0 0 0 0 0 0 1 3 4 2 1 0 0 0 0
17 16 11 8 7 7 10 16 18 17 16 14 12 11 8 4 2 2 4 5 4 2 1 0 0 0 0 0 0 1 1 1 0 0 2 4 5 3 2 2 1 0 0
25 21 16 14 12 12 15 18 17 15 14 13 11 9 8 6 4 4 4 3 2 2 1 1 1 1 1 1 2 2 2 1 0 1 2 4 4 2 3 3 2 1 0
24 20 17 17 18 19 21 22 21 20 19 18 15 11 10 8 5 4 3 3 3 3 3 3 3 3 3 3 4 3 2 1 1 2 5 6 3 2 3 4 3 2 1
20 18 17 18 20 25 27 26 25 25 24 22 18 14 11 9 6 5 4 5 6 6 4 4 5 6 5 4 3 2 1 0 1 4 8 8 4 2 3 3 4 5 4
20 19 18 19 22 26 30 29 27 27 26 25 21 17 13 11 9 7 8 8 8 7 5 4 5 6 6 4 2 1 1 1 2 4 7 8 5 4 3 3 5 7 7
20 20 19 20 24 27 30 29 27 27 28 25 22 19 15 12 10 10 10 9 7 6 5 3 2 4 6 5 3 2 2 3 3 3 5 8 8 5 4 5 7 8 9
18 19 19 20 23 26 27 26 24 25 25 23 21 21 17 12 11 13 12 9 7 5 4 4 4 5 6 6 6 5 4 4 5 5 6 10 10 7 6 6 8 9 10
17 17 18 18 20 22 22 21 19 20 20 18 19 20 17 12 12 14 13 10 7 6 6 7 8 8 7 7 7 6 5 6 6 6 6 8 10 9 9 9 8 7 7
12 14 14 14 15 17 18 17 15 16 16 15 16 17 15 11 10 11 12 10 8 8 8 9 10 9 8 6 5 5 6 6 6 5 5 5 7 10 12 12 10 7 5
7 9 10 9 10 13 14 14 13 14 15 14 15 17 16 12 8 8 10 10 8 8 9 11 10 8 5 4 4 4 5 6 6 6 4 2 3 7 10 12 13 10 7
5 6 7 6 7 9 10 11 11 12 13 14 15 17 17 15 11 9 10 10 9 10 10 9 8 5 4 4 4 5 4 4 5 6 4 2 2 5 8 11 14 13 11
4 4 5 6 6 7 7 8 9 10 11 12 14 15 15 15 15 13 12 11 11 11 9 5 3 3 3 4 5 5 4 3 3 4 4 4 5 7 8 9 11 11 10
3 3 4 5 6 6 7 8 8 9 9 10 11 13 14 14 13 12 11 10 10 9 7 3 1 1 2 3 5 7 6 4 3 3 4 5 7 9 8 7 7 8 8
3 2 3 4 5 6 6 7 7 7 8 9 10 11 12 10 8 6 6 7 7 8 6 3 1 1 1 2 5 7 7 6 4 3 3 4 6 7 6 5 6 8 9
4 3 3 4 4 4 4 4 5 6 7 8 9 10 9 7 6 4 3 4 6 7 6 3 1 1 2 2 3 5 6 6 5 3 2 3 4 3 3 3 5 7 7
5 5 4 4 4 3 2 2 3 5 6 7 9 9 7 6 6 5 4 4 5 6 5 2 1 1 2 3 3 4 5 5 5 3 2 2 2 2 1 2 4 4 3

GEFSSE_con_probscp_156.txt.gz
Probability
6 9 11 9 7 6 4 1 0 0 0 0 0 0 0 0 0 0 0 0 0 0 0 0 0 0 0 0 0 0 0 0 0 0 0 0 0 0 0 0 0 0 0
8 10 12 10 8 7 5 2 1 0 0 0 0 0 0 0 0 0 0 0 0 0 0 0 0 0 0 0 0 0 0 0 0 0 0 0 0 0 0 0 0 0 0
12 11 11 11 10 9 7 4 2 1 0 0 0 0 0 0 0 0 0 0 0 0 0 0 0 0 0 0 0 0 0 0 0 0 0 0 0 0 0 0 0 0 0
15 13 12 14 13 12 9 7 4 2 2 1 1 0 0 0 0 0 0 0 0 0 0 0 0 0 0 0 0 0 0 0 0 0 0 0 0 0 0 0 0 0 0
16 15 16 18 18 16 14 11 9 6 4 3 1 0 0 0 0 0 0 0 0 0 0 0 0 0 0 0 0 0 0 0 0 0 0 0 1 1 1 0 0 0 0
16 16 18 21 21 20 18 16 13 11 8 5 3 1 0 0 0 0 0 0 0 0 0 0 0 0 0 0 0 0 0 0 0 0 0 0 1 2 2 1 1 1 1
16 16 20 23 23 21 20 18 17 15 12 8 6 4 2 1 1 1 0 0 0 0 0 0 0 0 0 0 0 0 0 0 0 0 0 1 2 3 3 3 2 2 2
18 19 22 25 25 22 20 19 19 18 16 11 8 7 5 3 2 1 0 1 2 1 0 0 0 0 0 0 0 0 0 0 0 0 0 1 3 4 5 4 3 3 3
22 22 22 23 23 22 20 18 19 19 17 13 10 8 6 4 2 1 1 2 3 3 1 0 0 0 0 0 0 0 0 0 0 1 1 3 8 9 8 6 4 3 2
26 24 20 19 19 17 16 15 17 19 18 15 11 8 6 4 1 1 2 3 4 3 2 0 0 0 0 0 1 0 0 0 0 1 2 8 16 17 13 9 7 4 3
28 25 21 19 17 13 11 13 15 17 16 13 11 9 7 5 3 3 4 6 5 3 1 0 0 0 0 0 0 0 0 0 0 0 4 13 21 20 16 11 8 7 6
30 28 26 24 20 15 13 15 16 16 15 11 10 12 11 9 8 8 9 9 7 3 1 1 1 0 0 1 2 3 2 1 1 1 7 16 21 19 14 10 8 9 9
31 30 29 29 28 26 25 21 19 19 17 14 14 16 15 14 13 12 11 10 8 4 3 4 3 2 3 5 7 7 5 3 2 3 7 14 18 15 12 10 11 10 9
30 29 29 31 35 39 38 31 26 26 24 21 21 20 17 15 14 14 13 12 10 8 7 7 6 6 7 8 10 9 6 5 3 2 5 11 16 14 12 12 13 12 10
25 26 29 32 38 42 41 38 34 33 31 28 26 23 18 16 16 17 17 16 15 13 12 11 10 10 9 10 9 8 7 6 3 1 3 10 15 15 15 14 14 12 10
23 25 28 32 36 38 38 37 35 35 36 33 28 23 21 22 24 24 24 23 21 18 16 14 13 11 10 9 8 8 8 7 4 2 3 8 13 15 18 19 18 15 12
26 26 26 29 33 36 36 35 32 31 33 31 24 21 21 25 30 32 30 28 25 21 18 17 15 13 10 8 8 9 9 8 6 4 4 6 8 12 16 19 19 19 17
30 29 27 29 33 36 35 35 32 31 30 26 23 20 20 23 28 29 28 28 27 23 19 19 18 15 11 8 8 8 8 7 7 6 5 4 5 8 11 15 18 19 20
32 31 31 33 35 36 35 34 33 31 28 26 24 22 19 19 21 21 21 22 24 22 18 19 20 17 12 8 6 5 5 5 5 5 4 4 5 7 9 13 18 20 20
31 32 33 35 36 36 35 34 32 27 24 24 23 21 18 16 16 16 16 18 18 17 16 17 18 15 10 6 3 3 3 4 4 5 5 5 6 8 10 13 18 20 19
26 27 29 32 34 35 35 35 31 24 20 19 19 18 16 15 15 15 15 16 16 15 15 15 13 10 7 4 2 2 3 3 4 6 8 8 7 8 10 14 18 19 16
22 21 22 25 29 32 33 32 29 23 18 15 14 13 12 12 13 14 15 16 15 15 14 13 10 6 4 4 3 2 2 2 3 6 9 10 8 7 9 12 15 17 16
20 18 17 19 23 28 30 28 24 21 16 12 11 10 10 11 12 12 13 13 14 13 12 11 9 5 4 4 5 4 2 2 3 4 7 9 9 7 7 8 11 14 16
22 19 17 17 20 25 27 23 19 17 14 11 10 10 11 11 11 9 9 10 11 11 10 9 7 5 5 6 6 5 3 3 2 2 4 5 6 7 7 6 8 11 12
22 20 18 17 18 21 22 20 17 15 13 11 11 11 12 11 9 7 6 7 8 8 8 7 6 6 6 6 6 4 3 2 2 1 1 1 3 5 6 6 7 7 7
22 19 17 15 16 17 18 17 16 15 13 11 11 12 11 10 8 6 6 6 6 6 6 6 6 6 6 6 6 4 3 2 2 2 1 0 1 2 3 5 6 5 4

GEFSSE_con_probscp_162.txt.gz
Probability
0 2 4 5 5 3 1 0 0 0 0 0 0 0 0 1 1 1 0 0 0 0 0 0 0 0 0 0 0 0 0 0 0 0 0 0 0 0 0 0 0 0 0
2 4 7 9 8 6 3 2 1 1 0 0 0 0 0 0 0 0 0 0 0 0 0 0 0 0 0 0 0 0 0 0 0 0 0 0 0 0 0 0 0 0 0
5 7 11 13 12 9 7 5 4 3 1 1 0 1 1 1 0 0 0 0 0 0 0 0 0 0 0 0 0 0 0 0 0 0 0 0 0 0 0 0 0 0 0
8 10 14 17 16 12 9 7 6 5 3 2 2 2 2 1 1 0 0 0 0 0 0 0 0 0 0 0 0 0 0 0 0 0 0 0 0 1 1 0 1 1 1
9 11 16 21 21 15 11 9 7 6 4 3 3 3 2 1 0 0 0 0 0 0 0 0 0 0 0 0 0 0 0 0 0 0 0 0 0 1 1 1 1 2 2
12 13 17 23 24 18 13 10 8 7 6 5 4 4 3 1 0 0 0 0 0 0 0 0 0 0 0 0 0 0 0 0 0 0 0 0 0 1 2 2 1 2 2
15 15 18 23 24 21 16 12 10 9 8 6 5 5 5 3 1 0 0 0 0 0 0 0 0 0 0 0 0 0 0 0 0 0 0 0 1 2 2 2 2 2 2
17 18 20 22 23 23 21 19 16 13 10 7 5 5 5 4 2 1 0 0 0 0 0 0 0 0 0 0 0 0 0 0 0 0 0 0 1 3 3 3 3 2 2
19 20 21 21 21 22 24 24 22 20 16 11 7 6 5 5 3 2 1 1 0 0 0 1 1 1 1 1 1 1 1 0 0 0 0 0 1 3 3 4 4 3 2
20 22 22 21 20 20 22 23 23 21 19 14 9 7 7 5 3 2 2 2 1 1 1 2 2 2 2 2 2 2 2 2 1 0 0 1 3 4 3 4 4 3 3
17 19 21 21 20 19 19 20 19 18 16 13 10 8 8 5 2 1 3 3 2 2 2 2 3 4 4 3 1 1 2 3 2 1 2 4 7 7 5 5 4 3 4
12 14 16 17 18 18 17 18 17 15 14 12 10 8 7 5 2 1 3 3 2 3 2 2 3 4 4 3 1 0 1 2 1 1 4 9 12 10 7 6 5 4 4
12 12 13 14 14 13 13 14 14 13 12 10 9 9 7 5 2 2 2 2 2 2 1 1 2 2 2 2 1 0 0 0 0 1 4 10 12 9 7 5 4 3 3
18 16 15 14 12 11 10 9 9 10 9 7 7 9 7 4 4 3 2 3 3 2 0 0 1 1 1 0 0 0 0 0 1 1 3 5 6 4 3 2 2 1 2
24 21 19 16 14 13 12 10 9 9 8 6 6 6 5 3 4 4 3 4 4 2 1 0 1 1 0 0 0 0 0 0 1 2 3 2 2 1 2 2 3 2 2
29 27 23 18 16 16 14 12 11 9 8 7 6 5 3 2 4 5 5 4 3 2 1 0 0 0 0 0 0 0 0 0 1 2 3 2 1 1 2 4 5 4 4
29 29 26 21 18 17 15 14 12 10 9 8 6 5 3 3 4 5 5 3 2 1 0 0 0 0 0 0 0 0 0 0 0 1 2 2 1 1 2 3 5 5 4
25 26 25 22 20 18 16 15 12 10 8 6 4 3 3 3 3 3 2 1 0 0 0 0 0 0 0 0 0 0 0 0 0 0 1 1 2 2 1 2 3 4 4
23 24 24 23 21 18 14 13 11 7 4 2 1 1 1 1 1 1 1 0 0 0 0 0 0 0 0 0 0 0 0 0 0 0 0 0 1 2 2 2 2 3 3
21 21 21 21 18 14 10 8 6 3 1 0 0 1 1 1 1 0 0 0 0 0 0 0 0 0 0 0 0 0 0 0 0 0 0 0 0 1 1 1 1 2 3
16 15 15 14 12 8 6 4 2 1 0 0 0 1 2 1 0 0 0 0 0 0 0 0 0 0 0 0 0 0 0 0 0 0 0 0 0 0 0 1 1 1 1
14 13 11 10 8 5 4 3 1 0 0 0 0 1 2 2 1 0 0 0 0 0 0 0 0 0 0 0 0 0 0 0 0 0 0 0 0 0 1 2 2 1 1
13 13 11 9 7 5 4 3 1 1 1 1 1 1 2 2 2 1 1 1 0 0 0 0 0 0 0 0 0 0 0 0 0 0 0 0 0 0 1 2 3 2 1
11 11 11 8 7 6 5 3 2 2 2 2 2 2 3 3 3 3 2 2 1 0 0 0 0 0 0 0 0 0 0 0 0 0 0 0 0 0 0 1 1 1 1
7 8 8 8 6 5 4 3 2 1 1 2 3 3 3 3 3 3 3 2 1 0 0 0 0 0 0 0 0 0 0 0 0 0 0 0 0 0 0 0 0 0 0
5 6 6 7 6 5 4 3 1 0 1 2 3 3 3 2 2 3 3 1 0 0 0 0 0 0 0 0 0 0 0 0 0 0 0 0 0 0 0 0 0 0 0

GEFSSE_con_probscp_168.txt.gz
Probability
0 0 1 2 1 3 5 4 3 3 4 8 13 14 15 16 14 12 8 4 1 0 0 0 1 1 1 0 0 0 0 0 0 0 0 0 0 0 0 0 0 0 0
0 1 3 4 4 5 6 6 5 4 5 7 9 12 13 14 12 11 8 5 2 1 0 0 0 0 0 0 0 0 0 0 0 0 0 0 0 0 0 0 0 0 0
1 3 6 8 8 8 9 9 9 8 6 6 6 8 9 9 9 9 8 6 4 2 1 0 0 0 0 0 0 0 0 0 0 0 0 0 0 0 0 0 0 0 0
3 5 9 12 14 13 13 13 13 11 9 7 7 6 6 6 8 10 9 7 5 3 2 0 0 0 0 0 0 0 0 0 0 0 0 0 0 0 0 0 0 0 0
5 6 10 15 17 17 17 16 15 13 11 10 10 9 7 8 10 11 10 6 4 4 2 0 0 0 0 0 0 0 0 0 0 0 0 0 0 0 1 1 0 0 0
6 7 12 16 17 17 17 17 16 15 13 11 11 10 10 11 11 10 9 6 5 4 3 1 1 1 0 0 0 0 0 0 0 0 0 0 0 1 2 2 1 0 1
6 8 13 17 17 16 16 17 17 15 13 12 11 10 11 12 10 9 9 8 7 7 6 5 4 3 2 2 2 2 2 1 0 0 0 0 0 1 2 3 2 2 3
9 10 13 16 17 17 19 20 19 16 13 12 12 12 12 13 12 11 11 11 11 9 8 8 7 6 5 5 4 4 5 3 1 1 0 0 0 1 3 4 4 5 5
11 11 12 13 16 17 19 19 16 14 13 12 12 12 12 12 12 12 11 12 11 9 8 7 6 6 7 7 7 8 7 5 3 2 1 1 1 3 5 6 6 6 6
12 11 11 11 13 15 15 15 13 11 10 11 11 10 10 9 9 9 9 10 9 8 8 6 5 5 6 6 8 10 8 6 4 3 1 1 3 4 6 8 7 7 6
12 12 11 11 11 11 12 13 12 10 8 8 9 9 8 7 7 8 8 8 8 7 7 6 5 5 4 3 5 8 7 5 4 2 1 2 4 4 6 8 8 7 7
12 12 11 10 10 10 11 12 12 11 10 8 8 9 8 7 7 7 7 6 6 6 5 5 5 4 4 3 3 4 4 3 3 1 1 3 5 5 5 7 9 9 9
12 12 11 10 10 10 11 11 12 12 10 9 9 7 6 6 5 5 4 4 5 5 5 5 5 5 6 5 2 2 1 1 1 1 1 4 8 8 7 7 8 9 10
12 12 11 9 9 10 10 10 10 9 9 8 7 6 5 5 4 4 4 4 4 5 5 5 5 5 5 4 3 3 2 1 0 0 1 4 8 9 7 6 5 6 7
13 13 12 10 9 11 11 10 8 7 7 7 6 5 5 4 4 5 5 3 3 3 4 4 4 3 3 2 3 4 4 2 0 0 1 3 6 8 7 6 4 3 3
13 13 12 10 10 11 11 10 8 7 6 6 4 3 2 2 2 3 3 2 1 1 2 3 3 3 3 3 3 4 4 2 1 0 1 1 3 5 7 8 5 2 2
12 12 11 9 9 10 10 9 7 6 6 5 2 1 0 0 0 1 1 0 0 0 1 1 2 3 3 3 3 3 3 3 1 1 1 0 1 2 5 6 4 2 1
8 9 9 9 9 9 9 7 5 4 3 2 1 0 0 0 0 0 0 0 0 0 0 0 1 2 3 3 3 3 3 3 3 2 2 1 1 1 2 3 3 2 2
7 7 7 8 8 8 7 6 4 2 1 1 0 0 0 0 0 0 0 0 0 0 0 0 1 1 2 2 2 2 3 3 3 3 3 3 2 2 2 3 3 3 3
8 6 5 6 7 6 6 5 3 1 0 0 0 0 0 0 0 0 0 0 0 0 0 0 0 0 1 1 1 1 1 2 2 2 2 2 2 2 2 3 4 4 5
9 6 5 5 4 4 4 3 1 0 0 0 0 0 0 0 0 0 0 0 0 0 0 0 0 0 0 0 0 0 0 1 1 1 1 1 1 1 1 1 2 3 3
7 6 6 5 3 2 2 1 0 0 0 0 0 0 0 0 1 1 1 0 0 0 0 0 0 0 0 0 0 0 0 0 0 0 0 0 0 0 0 0 1 1 1
6 5 5 4 2 1 1 1 0 1 1 0 0 0 0 0 1 2 1 0 0 0 0 0 0 0 0 0 0 0 0 0 0 0 0 0 0 0 0 0 0 0 0
4 4 3 2 2 2 2 1 0 1 1 0 0 0 0 0 1 1 1 1 0 0 0 0 0 0 0 0 0 0 0 0 0 0 0 0 0 0 0 0 0 0 0
3 2 1 1 2 2 1 0 0 1 1 0 0 0 0 0 0 1 1 1 0 0 0 0 0 0 0 0 0 0 0 0 0 0 0 0 0 0 0 0 0 0 0
2 1 0 1 2 1 0 0 0 0 0 0 0 0 0 0 1 2 2 1 0 0 0 0 0 0 0 0 0 0 0 0 0 0 0 0 0 0 0 0 0 0 0

GEFSSE_con_probscp_174.txt.gz
Probability
2 2 2 2 1 0 1 2 4 7 9 9 6 5 4 3 3 3 3 3 2 1 0 0 0 0 0 0 0 0 0 0 0 0 0 0 0 0 0 0 0 0 0
3 4 3 3 2 1 2 3 5 8 11 11 9 7 4 3 3 3 3 3 2 1 0 0 0 0 0 0 0 0 0 0 0 0 0 0 0 0 0 0 0 0 0
5 6 5 4 4 4 5 5 5 9 13 13 11 8 5 3 3 3 3 3 3 1 0 0 0 0 1 1 0 0 0 0 0 0 0 0 0 0 0 0 0 0 1
7 8 8 8 8 7 7 7 7 8 11 12 10 7 5 3 3 3 3 3 3 2 1 0 0 0 1 1 0 0 0 0 0 0 0 0 0 0 0 0 0 0 1
8 10 12 12 11 10 9 10 10 10 10 10 9 7 5 4 3 3 3 3 3 2 1 0 0 0 0 0 0 0 0 0 0 0 0 0 0 1 0 0 0 0 1
8 10 13 14 12 11 10 12 13 12 10 10 9 7 6 5 4 4 3 3 4 4 2 1 1 2 1 0 0 0 0 0 0 0 0 0 0 1 1 1 1 1 0
9 10 11 13 12 9 9 12 14 13 12 11 9 8 7 7 7 7 6 5 5 6 5 2 2 5 4 2 1 0 0 0 0 0 0 0 0 1 2 2 2 2 1
9 8 8 10 10 8 9 12 15 15 15 14 11 9 8 9 9 9 8 6 5 5 4 3 3 5 4 2 1 0 0 0 0 0 0 1 2 2 1 1 1 3 3
9 8 7 8 8 8 10 13 15 16 16 16 13 10 9 8 7 7 6 5 4 3 3 3 3 3 2 1 1 0 0 0 0 0 0 3 6 5 2 1 1 3 4
10 9 9 9 8 8 8 10 13 13 13 13 12 9 7 6 5 4 4 4 4 3 3 4 5 4 2 1 1 1 0 0 0 0 1 4 8 6 3 1 2 3 2
13 11 11 11 10 8 6 7 9 9 9 9 9 7 6 5 4 4 5 5 4 3 4 6 8 7 4 2 3 2 1 0 1 1 4 8 10 6 3 2 3 4 4
14 13 11 11 11 10 8 8 8 9 9 8 8 8 8 7 5 4 6 6 5 4 4 6 9 7 4 4 6 5 2 2 4 4 8 14 13 9 7 6 6 7 7
16 14 11 10 10 11 12 13 12 11 10 10 10 10 11 11 9 7 8 9 7 6 6 8 9 6 3 5 7 6 4 5 9 10 14 18 16 13 11 9 9 8 7
19 16 12 11 12 14 17 18 16 12 11 12 12 12 13 16 15 15 15 14 12 11 10 11 10 5 3 5 5 4 4 7 11 15 19 19 16 13 11 11 10 8 5
21 19 16 15 17 20 21 21 19 15 13 13 13 13 15 19 22 22 21 19 17 14 14 13 11 7 6 6 5 3 4 5 8 14 18 18 15 11 9 10 10 7 6
23 23 20 17 19 21 21 19 18 16 16 15 14 14 17 21 24 24 22 19 16 14 14 14 12 10 9 8 6 5 5 5 6 10 13 15 13 9 7 9 10 9 8
24 24 21 17 17 18 18 16 16 17 18 16 15 15 17 19 21 20 18 15 12 11 12 12 11 11 11 9 6 5 6 7 6 7 9 12 11 8 7 8 10 10 9
23 23 20 17 17 18 19 18 18 20 20 17 14 14 15 16 15 15 14 13 11 10 10 10 10 11 11 9 7 5 6 6 6 6 6 8 9 7 7 10 10 8 7
22 23 23 22 22 22 22 22 23 23 21 17 14 13 13 12 10 10 11 11 11 10 9 8 9 10 9 8 7 5 4 4 5 4 4 5 6 5 7 11 10 6 4
23 25 28 29 28 26 24 24 24 22 18 14 11 10 9 7 6 7 9 9 9 9 8 8 9 9 8 7 5 3 2 2 4 4 4 4 3 3 5 8 8 5 2
28 31 32 30 29 26 24 23 24 20 15 10 7 6 5 4 4 5 7 8 8 8 8 9 9 8 8 8 6 4 2 1 2 3 3 3 3 2 3 4 5 3 2
32 34 34 29 25 23 21 21 20 17 12 8 6 5 4 3 3 3 5 7 8 8 8 9 9 8 7 8 9 7 4 1 1 1 2 4 4 2 2 2 2 2 2
32 34 32 28 24 21 19 17 15 13 10 7 6 5 3 2 1 2 4 5 7 8 9 11 11 9 8 9 10 9 6 2 1 0 1 3 3 2 2 2 1 1 2
32 32 30 27 25 21 18 16 13 10 8 7 7 6 4 2 1 2 3 4 5 7 9 12 13 12 11 10 10 9 8 5 2 0 0 1 1 2 3 3 3 2 2
29 29 28 25 23 20 17 16 15 12 9 7 7 7 5 3 3 3 4 5 5 5 8 11 13 13 11 10 10 10 9 7 3 1 0 0 0 0 1 2 3 3 3
25 26 26 24 21 18 16 16 16 14 10 8 7 6 4 4 4 5 6 6 5 4 6 11 12 11 10 11 11 11 10 7 5 1 0 0 0 0 0 1 3 3 3

GEFSSE_con_probscp_180.txt.gz
Probability
8 12 14 13 9 5 2 0 0 0 0 0 0 1 1 1 2 3 3 3 1 0 0 0 0 0 0 0 0 0 0 0 0 0 0 0 0 0 0 0 0 1 1
10 12 14 13 10 7 4 1 1 1 0 0 1 2 3 2 3 3 3 3 2 1 0 0 0 0 0 0 0 0 0 0 0 0 0 0 0 0 0 0 0 1 3
13 12 12 12 11 9 7 4 3 2 1 1 2 4 5 5 4 4 3 3 2 1 0 0 0 0 0 0 0 0 0 0 0 0 0 0 0 1 2 1 0 1 2
16 13 12 13 11 10 10 8 5 4 3 3 3 4 5 6 6 5 4 3 2 1 0 0 0 0 0 0 0 0 0 0 0 0 0 0 2 4 3 1 1 0 1
16 15 17 18 15 12 11 10 8 6 6 5 4 4 5 6 6 6 5 3 2 0 0 0 0 0 0 0 0 1 1 0 0 0 0 1 4 7 6 3 2 2 1
15 17 23 26 22 15 12 11 9 7 7 6 4 4 5 5 5 5 5 4 3 2 1 1 0 1 1 0 0 1 1 1 0 0 0 2 8 11 9 6 5 4 4
18 20 26 31 28 20 15 11 8 6 6 5 5 5 6 5 4 4 4 5 5 4 3 2 2 2 1 1 1 1 2 2 1 0 1 5 14 18 14 9 7 7 7
25 25 26 29 28 25 21 15 10 6 5 6 7 8 8 6 4 4 4 4 4 4 3 3 3 3 2 2 2 2 2 2 2 0 1 9 22 26 20 12 10 9 9
30 28 25 23 24 24 23 19 13 11 10 10 10 10 9 7 5 4 4 3 2 3 3 4 4 5 4 3 3 3 2 2 1 0 2 13 28 33 26 19 14 12 12
32 29 25 22 20 18 18 16 15 16 15 14 12 11 9 6 4 4 5 5 4 4 4 5 6 6 6 4 3 3 2 1 0 0 4 17 33 37 30 24 18 16 15
35 32 28 24 18 13 12 15 16 16 15 14 13 12 9 6 4 4 6 8 7 6 6 6 6 6 6 5 4 3 2 1 1 2 8 22 33 35 29 24 19 17 16
40 37 31 26 20 13 15 20 19 17 16 14 13 13 11 8 6 6 10 12 9 6 6 7 7 7 7 6 5 5 5 2 2 4 13 25 30 29 26 22 21 18 17
44 41 34 29 24 21 23 26 24 22 22 17 15 18 16 13 13 16 18 17 12 9 10 10 10 11 9 7 5 5 5 3 2 5 16 27 29 25 22 21 23 23 23
48 45 39 34 34 35 34 32 30 28 26 22 20 22 23 21 22 25 26 23 19 19 19 18 15 14 11 8 5 4 4 4 5 9 19 29 30 24 21 20 21 24 25
53 51 45 41 43 46 43 38 34 33 31 28 26 26 28 28 27 26 25 24 23 26 27 23 17 14 12 10 7 6 6 8 12 15 21 29 30 25 21 19 18 19 20
57 55 50 45 45 47 45 40 37 36 36 35 34 33 33 32 28 25 22 22 23 24 25 22 16 13 13 12 10 10 11 13 16 19 21 25 27 24 22 20 18 16 16
58 58 53 45 44 47 46 43 39 39 37 39 41 39 36 34 31 27 24 22 21 22 22 18 14 12 12 12 12 13 14 15 15 16 17 18 21 22 24 23 20 16 15
58 58 53 46 45 49 48 46 45 43 41 43 46 44 38 34 32 30 29 25 23 23 21 16 12 10 9 10 12 14 16 17 16 14 13 14 17 21 22 21 19 15 12
58 57 52 46 46 47 47 47 48 47 46 48 49 45 37 31 29 29 29 26 25 24 21 16 13 11 9 9 10 11 13 16 17 15 13 13 16 19 16 14 14 11 8
54 53 50 47 46 45 44 45 47 48 48 49 48 43 35 28 26 25 24 22 20 20 18 15 13 12 12 12 9 8 9 12 16 17 15 13 14 14 11 10 10 7 5
49 48 47 47 47 46 44 44 45 46 45 45 43 38 30 25 23 21 19 17 14 13 13 13 12 12 13 13 11 8 6 8 12 16 15 11 10 9 8 10 11 8 6
48 46 44 46 47 46 44 43 43 41 39 38 37 32 25 21 19 16 15 15 12 10 9 9 10 10 11 13 13 9 6 7 10 12 12 10 8 8 8 10 11 10 8
47 45 43 45 46 45 43 42 39 37 34 33 32 28 23 18 15 14 13 14 13 11 8 8 10 11 12 13 13 11 9 8 7 7 8 7 7 7 7 8 9 9 8
42 41 42 44 44 43 41 39 37 34 32 31 30 27 22 16 13 12 12 12 13 12 10 9 10 12 12 13 14 13 12 9 4 3 4 4 5 5 5 5 5 5 5
37 38 40 42 41 40 38 37 35 33 31 30 28 25 20 14 11 10 10 10 10 10 10 10 10 10 10 11 13 15 14 9 3 1 1 3 3 3 3 3 2 2 2
37 37 39 40 38 37 37 36 34 33 30 29 27 22 17 12 10 9 8 8 8 9 9 10 9 9 8 8 11 14 13 8 3 1 1 2 3 3 3 2 1 0 0

GEFSSE_con_probscp_186.txt.gz
Probability
0 1 5 11 12 10 7 4 3 2 2 2 1 0 2 5 7 8 7 5 4 3 1 0 0 0 0 0 0 0 0 0 1 0 0 0 0 0 0 0 1 1 2
1 2 6 10 11 10 8 6 4 2 1 1 0 1 2 4 6 7 7 5 3 3 2 1 0 0 0 0 0 0 0 0 1 0 0 0 0 0 0 0 1 2 2
4 4 6 10 11 11 10 9 6 4 1 0 0 1 2 4 5 7 7 5 4 3 2 1 0 0 0 0 0 0 0 0 0 0 0 0 0 1 2 2 2 2 2
7 6 7 11 13 12 12 11 9 6 2 1 1 2 3 4 5 6 6 5 4 3 2 1 0 0 0 0 0 0 0 0 1 2 3 1 1 3 4 4 3 2 2
10 10 11 14 14 13 13 12 11 9 5 3 4 3 3 5 6 6 5 5 4 3 1 0 0 0 0 0 0 0 0 1 4 6 6 2 2 4 5 3 3 2 2
13 14 16 18 17 14 13 12 12 11 8 6 5 5 4 5 6 5 4 4 4 3 1 0 0 0 0 0 0 0 0 2 6 8 6 3 2 4 5 4 3 2 2
17 17 20 22 22 18 16 15 15 14 11 7 6 6 5 5 5 5 5 4 3 2 0 0 0 0 0 1 2 2 2 3 4 5 4 2 2 3 5 6 4 2 1
21 20 21 24 25 24 22 21 21 18 14 10 7 6 5 5 5 5 4 3 1 0 0 0 0 0 1 2 3 4 4 2 2 2 1 1 2 5 6 7 5 2 1
22 21 21 22 24 25 24 23 22 21 18 15 11 7 5 4 4 5 4 2 1 1 1 1 1 1 2 2 3 3 3 1 0 0 0 1 4 7 8 7 6 3 2
17 17 18 19 20 20 19 17 18 20 21 20 17 11 6 4 4 4 4 3 3 3 2 1 2 3 3 2 2 1 1 1 1 1 0 1 4 6 8 8 7 6 5
14 13 15 17 17 15 13 14 15 17 19 19 15 10 7 4 3 3 3 3 4 4 3 2 2 3 4 3 2 1 1 2 2 1 1 2 4 5 7 7 7 6 6
15 14 13 15 15 14 14 15 15 15 14 13 10 7 4 3 2 2 1 1 3 3 2 1 1 2 3 3 3 3 3 3 2 1 1 3 4 4 5 6 7 7 6
18 16 14 14 15 15 16 16 14 12 11 8 6 5 3 1 1 1 1 1 2 2 1 1 1 1 1 1 3 3 3 3 2 1 2 5 6 5 5 5 8 10 9
22 20 17 14 14 15 15 13 11 9 8 5 5 4 2 0 0 0 1 3 3 2 0 0 1 1 0 1 2 2 3 3 3 1 2 7 10 8 6 5 8 11 12
27 26 22 18 15 15 13 10 7 6 5 4 4 4 2 0 0 0 1 3 3 2 1 0 0 0 0 0 1 1 1 2 3 2 2 6 11 11 7 5 6 9 11
32 33 30 24 20 19 16 11 8 5 5 5 5 5 4 2 2 2 1 2 2 2 1 0 0 0 0 0 0 0 0 1 2 1 1 3 8 9 7 6 7 8 9
35 37 35 30 27 24 20 16 11 9 8 9 9 9 9 8 6 4 2 1 1 1 0 0 0 0 0 0 0 0 0 1 1 1 0 1 3 6 7 8 9 11 11
36 39 38 34 32 30 26 21 17 15 15 14 14 14 15 13 9 6 4 3 2 1 0 0 0 0 0 0 0 0 0 0 0 0 0 0 1 3 5 8 10 11 11
36 38 38 35 34 32 28 26 23 20 20 19 16 15 15 13 10 7 5 4 3 1 0 0 0 0 0 0 0 0 0 0 0 0 0 0 0 1 2 4 7 8 8
34 35 36 35 33 31 30 29 27 23 21 19 16 15 13 11 9 7 6 5 3 2 1 0 0 0 0 0 0 0 0 0 0 0 0 0 0 0 0 1 3 4 5
33 33 33 32 31 30 30 30 27 23 19 17 16 14 11 10 9 7 5 4 3 3 1 1 0 0 0 0 0 0 0 0 0 0 0 0 0 0 0 0 0 1 2
30 30 29 29 29 29 29 28 25 21 18 17 15 13 11 9 8 7 5 4 3 3 3 2 1 0 0 0 0 0 0 0 0 0 0 0 0 0 0 0 0 0 0
26 26 27 28 29 29 28 28 24 20 18 18 15 13 11 9 8 8 7 5 3 3 3 3 1 0 0 0 0 0 0 0 0 0 0 0 0 0 0 0 0 0 0
25 26 27 28 29 29 28 26 24 21 19 17 15 12 10 8 8 7 7 5 4 3 3 3 2 1 1 0 0 0 0 0 0 0 0 0 0 0 0 0 0 0 0
26 27 27 27 27 28 27 24 23 21 18 15 13 11 8 7 7 7 6 6 4 3 3 3 3 3 2 1 0 0 0 0 0 0 0 0 0 0 0 0 0 0 0
28 27 27 26 26 26 25 23 23 21 17 15 13 10 7 6 6 6 6 6 5 4 3 3 3 3 3 2 1 0 0 0 0 0 0 0 0 0 0 0 0 0 0

GEFSSE_con_probscp_192.txt.gz
Probability
0 1 4 5 6 8 10 12 13 13 14 15 14 14 15 17 17 14 11 9 8 8 7 6 4 2 1 0 0 0 0 0 0 0 0 0 0 0 0 0 0 0 0
0 2 6 8 9 9 10 11 12 12 13 14 14 13 13 15 16 15 13 10 9 9 7 5 3 2 1 1 1 1 0 0 0 0 0 0 0 0 0 0 0 0 0
2 4 9 12 13 13 11 11 12 11 11 13 14 15 14 14 15 15 13 12 10 10 8 5 3 3 2 2 2 2 1 1 0 0 0 1 1 1 1 2 1 1 1
5 6 10 15 17 15 13 12 13 12 11 13 15 17 16 14 14 14 13 11 11 11 10 7 4 3 3 3 3 2 2 2 1 0 1 2 2 2 3 3 2 1 1
8 7 11 17 18 16 14 14 13 13 13 15 17 17 15 13 13 13 12 11 11 13 12 10 6 4 3 2 2 1 2 2 1 0 1 2 2 2 2 3 2 1 1
11 10 13 20 22 19 18 15 14 14 14 16 18 18 15 13 13 13 12 11 12 13 12 10 7 5 3 2 2 2 1 1 0 0 0 1 1 1 3 4 3 2 2
14 13 17 25 28 26 23 19 16 17 18 18 18 17 15 13 12 12 12 13 12 12 10 6 4 3 2 2 3 3 2 1 1 0 0 0 1 3 6 7 6 5 4
18 18 21 28 32 29 26 23 21 23 24 21 18 17 15 12 11 11 12 12 11 10 8 4 2 1 1 1 2 3 3 3 2 1 0 1 4 7 9 9 8 6 5
21 22 24 26 28 27 26 25 25 26 26 23 19 17 14 12 10 10 10 10 8 7 6 4 2 1 0 0 1 3 4 4 3 3 2 4 7 10 10 8 6 6 5
22 24 25 23 21 22 22 22 24 24 23 22 19 17 14 12 11 9 8 7 5 4 4 4 4 2 1 1 1 3 4 5 5 5 5 5 6 8 8 7 6 7 7
20 23 24 20 19 19 19 18 19 19 19 19 17 15 13 12 10 8 6 5 4 3 4 4 5 5 5 4 4 4 6 6 6 6 5 4 3 5 7 7 7 9 10
19 21 21 18 18 19 19 18 18 17 15 14 13 12 11 9 7 5 4 3 3 3 3 4 4 5 6 7 6 6 6 6 5 5 5 3 3 5 7 8 8 9 11
18 19 18 17 17 18 19 18 17 16 14 12 10 10 9 7 5 3 2 2 2 2 2 2 2 3 4 5 5 4 4 4 3 4 5 4 3 4 6 7 7 8 10
17 17 17 16 16 16 17 17 17 16 13 11 10 9 8 6 4 1 1 1 1 1 1 1 1 1 1 1 2 2 2 2 2 3 4 4 3 3 4 5 6 7 8
15 15 15 15 16 17 17 18 18 17 14 12 10 9 7 5 2 0 0 0 0 0 0 0 0 0 0 0 0 1 1 1 1 1 2 3 2 2 3 4 5 7 8
13 14 15 16 17 17 17 17 18 17 15 12 10 8 6 3 1 0 0 0 0 0 1 0 0 0 0 0 0 0 0 0 0 0 1 2 2 2 3 6 6 7 7
13 14 14 15 16 17 16 15 15 15 14 11 9 7 5 3 1 0 0 0 0 0 0 0 0 0 0 0 0 0 0 0 0 0 1 2 3 2 3 6 8 7 7
16 15 14 15 16 17 16 15 14 14 13 10 7 5 4 3 1 0 0 0 0 0 0 0 0 0 0 0 0 0 0 0 0 0 0 1 3 3 3 5 6 7 7
22 20 18 17 18 19 18 16 15 13 12 11 8 5 4 3 1 1 1 1 0 0 0 0 0 0 0 0 0 0 0 0 0 0 0 1 2 3 3 3 4 5 7
25 23 21 20 19 19 19 18 17 14 12 12 10 7 5 4 3 3 2 1 0 0 0 0 0 0 0 0 0 0 0 0 0 0 0 0 1 2 3 3 3 4 5
22 22 20 20 20 21 21 21 20 16 12 11 10 10 9 8 6 5 2 1 1 1 1 0 0 0 0 0 0 0 0 0 0 0 0 0 0 2 3 4 3 2 2
20 20 20 21 22 22 22 23 21 16 11 11 11 11 11 9 7 5 4 3 2 2 2 1 0 1 1 0 0 0 0 0 0 0 0 0 0 2 3 3 2 1 1
19 21 22 22 22 20 21 22 20 15 12 11 11 11 10 9 7 5 4 4 3 3 3 2 2 2 2 1 0 0 0 0 0 0 0 0 0 1 1 1 1 1 1
16 19 21 21 20 18 18 20 20 17 14 12 11 10 9 8 6 4 4 3 3 3 3 3 3 4 3 2 1 0 0 0 0 0 0 0 0 0 0 0 0 0 0
14 16 19 20 18 16 17 19 19 17 14 11 9 8 8 7 6 4 3 3 3 3 3 3 4 3 2 2 1 0 0 0 0 0 0 0 0 0 0 0 0 0 0
13 15 17 18 17 15 16 18 17 15 12 9 7 7 7 6 6 5 4 3 3 3 3 4 4 3 1 1 1 1 0 0 0 0 0 0 0 0 0 0 0 0 0